BAW1760 EGNT-EGPH

Flight info

Callsign BAW1760
Flight time 0h 25m
Altitude 12000
Route NATEB Y96 AGPED
Aircraft A20N/M-SDE2E3FGHIRWXY/LB1

Departure

Time 2026-04-22 13:05
Airport Newcastle International Airport (EGNT)

Arrival

Time 2026-04-22 13:30
Airport Edinburgh Airport (EGPH)
Time Latitude Longitude Altitude Speed Heading
2026-04-22 12:49 55.03669 -1.70845 251 ft 0 kts
2026-04-22 12:59 55.03662 -1.70846 267 ft 2 kts
2026-04-22 12:59 55.03647 -1.70847 267 ft 2 kts 358°
2026-04-22 13:00 55.03632 -1.70846 267 ft 2 kts 356°
2026-04-22 13:00 55.03617 -1.70844 267 ft 2 kts 359°
2026-04-22 13:00 55.03602 -1.70844 267 ft 2 kts
2026-04-22 13:00 55.03587 -1.70846 267 ft 2 kts
2026-04-22 13:01 55.03581 -1.70846 267 ft 0 kts
2026-04-22 13:03 55.03592 -1.70839 267 ft 4 kts 28°
2026-04-22 13:03 55.03596 -1.70765 267 ft 10 kts 94°
2026-04-22 13:04 55.03560 -1.70645 267 ft 12 kts 164°
2026-04-22 13:04 55.03448 -1.70645 267 ft 20 kts 180°
2026-04-22 13:04 55.03377 -1.70523 267 ft 14 kts 63°
2026-04-22 13:04 55.03484 -1.70148 263 ft 76 kts 66°
2026-04-22 13:05 55.03819 -1.68892 414 ft 135 kts 66°
2026-04-22 13:05 55.04231 -1.67361 1313 ft 143 kts 65°
2026-04-22 13:05 55.04657 -1.65748 2302 ft 150 kts 66°
2026-04-22 13:05 55.05114 -1.64000 3003 ft 168 kts 67°
2026-04-22 13:06 55.05635 -1.62016 3587 ft 192 kts 68°
2026-04-22 13:06 55.06295 -1.59837 4267 ft 217 kts 55°
2026-04-22 13:06 55.07539 -1.58083 4903 ft 247 kts 26°
2026-04-22 13:06 55.09318 -1.57553 5589 ft 274 kts 356°
2026-04-22 13:07 55.11152 -1.58636 6603 ft 284 kts 327°
2026-04-22 13:07 55.12530 -1.61052 7625 ft 289 kts 300°
2026-04-22 13:07 55.13185 -1.64341 8641 ft 290 kts 273°
2026-04-22 13:07 55.13083 -1.67849 9684 ft 291 kts 262°
2026-04-22 13:08 55.12929 -1.71434 10591 ft 303 kts 264°
2026-04-22 13:08 55.12804 -1.75262 11044 ft 326 kts 264°
2026-04-22 13:08 55.12679 -1.79353 11514 ft 346 kts 264°
2026-04-22 13:08 55.12546 -1.83599 12196 ft 351 kts 264°
2026-04-22 13:09 55.12406 -1.87884 12451 ft 353 kts 264°
2026-04-22 13:09 55.12340 -1.92143 12530 ft 356 kts 272°
2026-04-22 13:09 55.12832 -1.96402 12536 ft 358 kts 288°
2026-04-22 13:09 55.13931 -2.00320 12523 ft 360 kts 299°
2026-04-22 13:10 55.15196 -2.04095 12525 ft 359 kts 299°
2026-04-22 13:10 55.16455 -2.07879 12523 ft 360 kts 299°
2026-04-22 13:10 55.17709 -2.11674 12516 ft 360 kts 299°
2026-04-22 13:10 55.18963 -2.15482 12496 ft 360 kts 299°
2026-04-22 13:11 55.20196 -2.19239 12487 ft 360 kts 299°
2026-04-22 13:11 55.21445 -2.23049 12493 ft 360 kts 299°
2026-04-22 13:11 55.22692 -2.26863 12481 ft 361 kts 299°
2026-04-22 13:11 55.23940 -2.30680 12488 ft 360 kts 299°
2026-04-22 13:12 55.25184 -2.34495 12479 ft 361 kts 299°
2026-04-22 13:12 55.26430 -2.38324 12479 ft 361 kts 298°
2026-04-22 13:12 55.27672 -2.42145 12484 ft 361 kts 298°
2026-04-22 13:12 55.28914 -2.45973 12479 ft 361 kts 298°
2026-04-22 13:13 55.30153 -2.49796 12480 ft 359 kts 298°
2026-04-22 13:13 55.31377 -2.53578 12487 ft 361 kts 298°
2026-04-22 13:13 55.32617 -2.57414 12479 ft 360 kts 298°
2026-04-22 13:13 55.33850 -2.61239 12481 ft 359 kts 298°
2026-04-22 13:14 55.35084 -2.65073 12485 ft 360 kts 298°
2026-04-22 13:14 55.36317 -2.68912 12485 ft 361 kts 298°
2026-04-22 13:14 55.37549 -2.72752 12491 ft 360 kts 298°
2026-04-22 13:14 55.38776 -2.76584 12497 ft 359 kts 298°
2026-04-22 13:15 55.40005 -2.80424 12498 ft 361 kts 298°
2026-04-22 13:15 55.41221 -2.84231 12496 ft 360 kts 298°
2026-04-22 13:15 55.42447 -2.88077 12500 ft 360 kts 298°
2026-04-22 13:15 55.43675 -2.91936 12471 ft 361 kts 298°
2026-04-22 13:16 55.44908 -2.95794 12285 ft 361 kts 300°
2026-04-22 13:16 55.46530 -2.99132 12025 ft 359 kts 321°
2026-04-22 13:16 55.47926 -3.00696 11802 ft 358 kts 336°
2026-04-22 13:16 55.51029 -3.02570 11358 ft 354 kts 345°
2026-04-22 13:17 55.53384 -3.03790 11007 ft 350 kts 345°
2026-04-22 13:17 55.54936 -3.04593 10780 ft 350 kts 345°
2026-04-22 13:17 55.57269 -3.05827 10431 ft 348 kts 344°
2026-04-22 13:17 55.59564 -3.07074 10027 ft 342 kts 344°
2026-04-22 13:18 55.61760 -3.08610 9628 ft 337 kts 329°
2026-04-22 13:18 55.63491 -3.11322 9242 ft 331 kts 306°
2026-04-22 13:18 55.64608 -3.14829 8858 ft 325 kts 295°
2026-04-22 13:18 55.65586 -3.18409 8449 ft 321 kts 294°
2026-04-22 13:19 55.66544 -3.21974 8095 ft 317 kts 294°
2026-04-22 13:19 55.67476 -3.25453 7843 ft 309 kts 294°
2026-04-22 13:19 55.68389 -3.28851 7597 ft 302 kts 294°
2026-04-22 13:19 55.69288 -3.32198 7196 ft 300 kts 294°
2026-04-22 13:20 55.70184 -3.35543 6729 ft 300 kts 294°
2026-04-22 13:20 55.71049 -3.38867 6280 ft 300 kts 291°
2026-04-22 13:20 55.71716 -3.42370 5834 ft 300 kts 284°
2026-04-22 13:20 55.72296 -3.45935 5383 ft 300 kts 284°
2026-04-22 13:21 55.72871 -3.49461 5117 ft 293 kts 284°
2026-04-22 13:21 55.73389 -3.52912 4872 ft 285 kts 281°
2026-04-22 13:21 55.73784 -3.56325 4554 ft 281 kts 279°
2026-04-22 13:21 55.74159 -3.59713 4251 ft 276 kts 279°
2026-04-22 13:22 55.74518 -3.63002 4033 ft 272 kts 279°
2026-04-22 13:22 55.74888 -3.66385 3979 ft 279 kts 279°
2026-04-22 13:22 55.75365 -3.69696 3971 ft 277 kts 294°
2026-04-22 13:22 55.76503 -3.72317 3975 ft 261 kts 324°
2026-04-22 13:23 55.78068 -3.73643 3967 ft 240 kts 352°
2026-04-22 13:23 55.79647 -3.73724 3977 ft 218 kts 15°
2026-04-22 13:23 55.80992 -3.72880 3986 ft 194 kts 36°
2026-04-22 13:23 55.82083 -3.71553 3975 ft 193 kts 41°
2026-04-22 13:24 55.83166 -3.70228 3996 ft 180 kts 40°
2026-04-22 13:24 55.84081 -3.68892 3977 ft 160 kts 53°
2026-04-22 13:24 55.84735 -3.67435 3962 ft 143 kts 63°
2026-04-22 13:24 55.85254 -3.65971 3779 ft 139 kts 67°
2026-04-22 13:25 55.85757 -3.64472 3599 ft 144 kts 64°
2026-04-22 13:25 55.86283 -3.62947 3389 ft 146 kts 64°
2026-04-22 13:25 55.86808 -3.61406 3213 ft 148 kts 64°
2026-04-22 13:25 55.87344 -3.59812 3018 ft 150 kts 62°
2026-04-22 13:26 55.87884 -3.58235 2818 ft 152 kts 63°
2026-04-22 13:26 55.88401 -3.56716 2595 ft 138 kts 62°
2026-04-22 13:26 55.88890 -3.55294 2413 ft 130 kts 62°
2026-04-22 13:26 55.89351 -3.53920 2225 ft 128 kts 63°
2026-04-22 13:27 55.89799 -3.52601 2044 ft 120 kts 63°
2026-04-22 13:27 55.90214 -3.51376 1875 ft 110 kts 63°
2026-04-22 13:27 55.90600 -3.50232 1724 ft 109 kts 62°
2026-04-22 13:27 55.91008 -3.49029 1570 ft 117 kts 62°
2026-04-22 13:28 55.91426 -3.47806 1418 ft 115 kts 61°
2026-04-22 13:28 55.91827 -3.46618 1256 ft 109 kts 62°
2026-04-22 13:28 55.92224 -3.45438 1085 ft 112 kts 61°
2026-04-22 13:28 55.92617 -3.44286 932 ft 111 kts 60°
2026-04-22 13:29 55.93023 -3.43085 769 ft 110 kts 59°
2026-04-22 13:29 55.93424 -3.41905 569 ft 113 kts 60°
2026-04-22 13:29 55.93824 -3.40715 406 ft 114 kts 60°
2026-04-22 13:29 55.94234 -3.39522 261 ft 112 kts 60°
2026-04-22 13:30 55.94624 -3.38365 125 ft 105 kts 59°
2026-04-22 13:30 55.94943 -3.37415 110 ft 64 kts 59°
2026-04-22 13:30 55.95108 -3.36936 114 ft 39 kts 59°
2026-04-22 13:30 55.95242 -3.36543 109 ft 30 kts 58°
2026-04-22 13:31 55.95211 -3.36370 107 ft 19 kts 150°
2026-04-22 13:31 55.95168 -3.36326 109 ft 3 kts 150°
2026-04-22 13:31 55.95139 -3.36281 108 ft 0 kts 107°
2026-04-22 13:31 55.95139 -3.36277 108 ft 0 kts 97°
2026-04-22 13:32 55.95129 -3.36269 109 ft 1 kts 163°
2026-04-22 13:32 55.95109 -3.36307 109 ft 9 kts 253°
2026-04-22 13:32 55.95037 -3.36389 110 ft 15 kts 188°
2026-04-22 13:32 55.94959 -3.36471 109 ft 13 kts 159°
2026-04-22 13:33 55.94918 -3.36426 108 ft 4 kts 149°
2026-04-22 13:33 55.94915 -3.36422 108 ft 0 kts 149°